• Join FlightAware (Why Join?)
  • Login
  • US Flag GB Flag 
22:59 EST


 

Airport Tracker/Info


-or-


 

Live Flight TrackerFlight Track Log ✈ N1926A ✈ 24-Apr-2013 ✈ KMOB - KMGM

Flight Track Log - Related Links

Times and Time Zones

All times are in EDT time to prevent confusion due to time zone crossing. See the N1926A flight status page for this flight to view local times or setup timezone preferences in your user account.

Time Position Orientation Groundspeed Altitude Reporting Facility
EDT Latitude Longitude Course Direction KTS MPH feet Rate Location/Type
15:09 30.7150 -88.1711 44° Northeast 218 251 3,100  Level Houston Center
15:10 30.7672 -88.1475 21° North 208 239 5,100 1,935 Climbing Houston Center
15:11 30.8119 -88.1019 41° Northeast 223 257 7,100 2,032 Climbing Houston Center
15:12 30.8544 -88.0508 46° Northeast 223 257 9,300 2,081 Climbing Houston Center
15:13 30.9520 -87.9376 46° Northeast  Level FlightAware Approximate
15:13 30.8967 -87.9994 46° Northeast 222 255 11,400  Level Houston Center
15:14 30.9952 -87.8864 44° Northeast  Level FlightAware Approximate
15:14 30.9492 -87.9383 45° Northeast 225 259 12,900  Level Houston Center
15:15 31.0028 -87.8772 44° Northeast 271 312 12,900  Level Houston Center
15:16 31.0600 -87.8169 42° Northeast 279 321 12,900  Level Houston Center
15:17 31.1183 -87.7564 42° Northeast 282 325 12,900  Level Houston Center
15:18 31.1769 -87.6939 42° Northeast 285 328 12,900  Level Houston Center
15:19 31.2456 -87.6181 43° Northeast 284 327 12,900  Level Houston Center
15:20 31.3031 -87.5533 44° Northeast 287 330 12,900  Level Houston Center
15:21 31.3617 -87.4892 43° Northeast 290 334 12,900  Level Houston Center
15:22 31.4183 -87.4228 45° Northeast 289 333 12,900  Level Houston Center
15:23 31.4742 -87.3567 45° Northeast 288 331 12,900  Level Houston Center
15:24 31.5289 -87.2900 46° Northeast 286 329 12,900 49 Level Houston Center
15:25 31.5931 -87.2203 43° Northeast 279 321 13,000 50 Climbing Atlanta Center
15:26 31.6508 -87.1567 43° Northeast 279 321 13,000  Level Atlanta Center
15:27 31.7136 -87.0758 48° Northeast 285 328 13,000  Level Atlanta Center
15:28 31.7756 -87.0094 42° Northeast 290 334 13,000 -350 Level Atlanta Center
15:29 31.8336 -86.9406 45° Northeast 295 339 12,300 -650 Descending Atlanta Center
15:30 31.8978 -86.8692 43° Northeast 295 339 11,700 -550 Descending Atlanta Center
15:31 31.9558 -86.7975 46° Northeast 301 346 11,200 -300 Descending Atlanta Center
15:32 32.0158 -86.7308 43° Northeast 301 346 11,100 -350 Descending Atlanta Center
15:33 32.0736 -86.6614 46° Northeast 296 341 10,500 -1,200 Descending Atlanta Center
15:34 32.1336 -86.5847 47° Northeast 296 341 8,700 -1,650 Descending Atlanta Center
15:35 32.1833 -86.5028 54° Northeast 302 348 7,200 -1,550 Descending Atlanta Center
15:36 32.2019 -86.4100 77° East 287 330 5,600 -1,800 Descending Atlanta Center
15:37 32.2244 -86.3122 75° East 293 337 3,600 -1,750 Descending Atlanta Center
15:38 32.2917 -86.2994 North 218 251 2,100 -1,450 Descending Atlanta Center
15:39 32.2989 -86.3608 278° West 107 123 700 -900 Descending Atlanta Center
15:40 32.3172 -86.3786 321° Northwest 102 117 300 -400 Descending Atlanta Center